TimePDT,TemperatureF,Dew PointF,Humidity,Sea Level PressureIn,VisibilityMPH,Wind Direction,Wind SpeedMPH,Gust SpeedMPH,PrecipitationIn,Events,Conditions,WindDirDegrees,DateUTC
1:53 AM,43.0,39.0,86,30.08,10.0,Calm,Calm,-,N/A,,Clear,0,2012-10-09 08:53:00
2:53 AM,43.0,37.9,82,30.09,10.0,ESE,3.5,-,N/A,,Clear,110,2012-10-09 09:53:00
3:53 AM,39.9,37.0,89,30.09,10.0,Calm,Calm,-,N/A,,Clear,0,2012-10-09 10:53:00
4:53 AM,39.9,36.0,86,30.10,10.0,Calm,Calm,-,N/A,,Clear,0,2012-10-09 11:53:00
5:14 AM,42.8,37.4,81,30.10,10.0,Calm,Calm,-,N/A,,Scattered Clouds,0,2012-10-09 12:14:00
5:34 AM,42.8,37.4,81,30.10,10.0,East,3.5,-,N/A,,Overcast,80,2012-10-09 12:34:00
5:53 AM,45.0,39.9,82,30.11,10.0,Calm,Calm,-,N/A,,Overcast,0,2012-10-09 12:53:00
6:46 AM,44.6,39.2,81,30.11,10.0,Calm,Calm,-,N/A,,Overcast,0,2012-10-09 13:46:00
6:53 AM,44.1,39.0,82,30.11,10.0,Calm,Calm,-,N/A,,Overcast,0,2012-10-09 13:53:00
7:44 AM,46.4,42.8,87,30.11,2.5,Calm,Calm,-,N/A,,Overcast,0,2012-10-09 14:44:00
7:53 AM,46.0,44.1,93,30.12,1.8,ESE,3.5,-,N/A,,Overcast,110,2012-10-09 14:53:00
8:02 AM,46.4,44.6,93,30.12,0.8,Calm,Calm,-,N/A,,Overcast,0,2012-10-09 15:02:00
8:37 AM,46.4,44.6,93,30.12,2.5,ESE,3.5,-,N/A,,Overcast,110,2012-10-09 15:37:00
8:45 AM,46.4,44.6,93,30.12,3.0,ESE,3.5,-,N/A,,Overcast,120,2012-10-09 15:45:00
8:53 AM,46.0,44.1,93,30.12,1.0,ESE,3.5,-,N/A,,Overcast,110,2012-10-09 15:53:00
9:53 AM,48.0,45.0,89,30.13,1.5,Calm,Calm,-,N/A,,Overcast,0,2012-10-09 16:53:00
10:34 AM,48.2,44.6,87,30.12,2.0,Variable,3.5,-,N/A,,Overcast,0,2012-10-09 17:34:00
10:53 AM,50.0,46.0,86,30.11,2.0,West,3.5,-,N/A,,Overcast,260,2012-10-09 17:53:00
11:37 AM,53.6,46.4,77,30.10,6.0,West,4.6,-,N/A,,Haze,260,2012-10-09 18:37:00
11:53 AM,54.0,46.9,77,30.10,7.0,SW,3.5,-,N/A,,Partly Cloudy,230,2012-10-09 18:53:00
12:53 PM,60.1,46.9,62,30.07,10.0,WSW,4.6,-,N/A,,Clear,250,2012-10-09 19:53:00
1:53 PM,64.0,46.9,54,30.04,10.0,WSW,8.1,-,N/A,,Unknown,250,2012-10-09 20:53:00
2:53 PM,64.0,46.0,52,30.02,10.0,Variable,3.5,-,N/A,,Clear,0,2012-10-09 21:53:00
3:53 PM,66.0,44.1,45,30.00,10.0,Variable,3.5,-,N/A,,Clear,0,2012-10-09 22:53:00
4:53 PM,66.9,44.1,44,29.99,10.0,WSW,5.8,-,N/A,,Clear,250,2012-10-09 23:53:00
5:53 PM,66.0,45.0,47,29.99,10.0,WSW,3.5,-,N/A,,Clear,250,2012-10-10 00:53:00
6:53 PM,57.9,45.0,62,29.99,10.0,Calm,Calm,-,N/A,,Clear,0,2012-10-10 01:53:00
7:53 PM,55.0,46.9,74,29.99,10.0,Calm,Calm,-,N/A,,Clear,0,2012-10-10 02:53:00
8:53 PM,51.1,46.0,83,30.00,10.0,Calm,Calm,-,N/A,,Clear,0,2012-10-10 03:53:00
9:53 PM,50.0,45.0,83,30.00,10.0,Calm,Calm,-,N/A,,Clear,0,2012-10-10 04:53:00
10:53 PM,48.9,45.0,86,30.01,10.0,East,3.5,-,N/A,,Clear,100,2012-10-10 05:53:00
11:53 PM,46.9,44.1,90,30.01,10.0,East,3.5,-,N/A,,Clear,100,2012-10-10 06:53:00